Regional Weather Roundup
Issued by NWS

Home | Current Version | Previous Version | Graphics & Text | Print | Product List | Glossary On
Versions: 1 2 3 4 5 6 7 8 9 10 11 12 13 14 15 16 17 18 19 20 21 22 23 24 25 26 27 28 29 30 31 32 33 34 35 36 37 38 39 40 41 42 43 44 45 46 47 48 49 50
000
ASUS43 KBIS 232320
RWRND

NORTH DAKOTA REGIONAL WEATHER ROUNDUP
NATIONAL WEATHER SERVICE BISMARCK ND
500 PM CST SUN NOV 23 2014

NOTE: "FAIR" INDICATES FEW OR NO CLOUDS BELOW 12,000 FEET WITH NO
SIGNIFICANT WEATHER AND/OR OBSTRUCTIONS TO VISIBILITY.


NDZ001>003-009>011-017-240000-
NORTHWEST NORTH DAKOTA

CITY           SKY/WX    TMP DP  RH WIND       PRES   REMARKS
WILLISTON      CLOUDY    21  12  68 NW20G26   29.79R WCI   6
MINOT          LGT SNOW  17  11  77 NW20      29.68R WCI   1
MINOT AFB      FLURRIES  16  10  79 N15       29.69R WCI   1
$$

NDZ018>021-031>035-040>046-240000-
SOUTHWEST NORTH DAKOTA

CITY           SKY/WX    TMP DP  RH WIND       PRES   REMARKS
BISMARCK       FLURRIES  22  13  68 NW20G39   29.68R WCI   7
DICKINSON      FLURRIES  24  16  71 NW31G39   29.68R WCI   7
GARRISON         N/A     19  11  70 NW28G39   29.67R WCI   1
HETTINGER ARPT CLOUDY    25  17  72 NW30G39   29.70R WCI   8
$$

NDZ004>008-012>016-024-026-027-054-240000-
NORTHEAST NORTH DAKOTA

CITY           SKY/WX    TMP DP  RH WIND       PRES   REMARKS
GRAND FORKS    FRZ RAIN  23  19  86 N16G26    29.53R WCI  10
GRND FRKS AFB  FRZ DRZL  23  21  93 N15G22    29.54R WCI  10
DEVILS LAKE    CLOUDY    18   5  57 NW22      29.57R WCI   0
$$

NDZ022-023-025-028>030-036>039-047>053-240000-
SOUTHEAST NORTH DAKOTA

CITY           SKY/WX    TMP DP  RH WIND       PRES   REMARKS
FARGO          CLOUDY    32  21  64 W16       29.49R
JAMESTOWN      CLOUDY    20  13  74 NW28G39   29.55R WCI   2
$$



USA.gov is the U.S. government's official web portal to all federal, state and local government web resources and services.